Location: Madrid
(40.4000°N, 3.6830°W)
Time: 18:12:26
(UTC+01:00)

N. Korean satellite - Visible Passes

Search period start: 21 January 2021 00:00
Search period end: 31 January 2021 00:00
Orbit: 453 x 502 km, 97.2° (Epoch: 20 January)

Date Brightness Start Highest point End Pass type
(mag) Time Alt. Az. Time Alt. Az. Time Alt. Az.
21 Jan 9.0 06:01:10 10° NE 06:03:56 22° E 06:06:40 10° SSE visible
21 Jan 7.8 07:34:35 10° NNW 07:37:07 19° WNW 07:39:37 10° WSW visible
22 Jan 10.0 05:37:00 10° E 05:37:10 10° E 05:37:19 10° E visible
22 Jan 6.8 07:07:24 10° N 07:10:42 41° WNW 07:13:56 10° SW visible
23 Jan 6.4 06:40:42 10° NNE 06:44:11 81° ESE 06:47:36 10° S visible
23 Jan 9.7 18:49:06 10° SW 18:51:40 18° W 18:54:13 10° NW visible
24 Jan 8.2 06:14:24 10° NNE 06:17:33 33° E 06:20:40 10° SSE visible
24 Jan 8.3 07:48:51 10° NW 07:50:33 13° WNW 07:52:14 10° W visible
25 Jan 9.5 05:48:45 10° NE 05:50:49 15° E 05:52:53 10° SE visible
25 Jan 7.4 07:21:13 10° NNW 07:24:11 27° WNW 07:27:06 10° SW visible
26 Jan 6.3 06:54:17 10° N 06:57:42 63° WNW 07:01:04 10° SSW visible
26 Jan 10.1 19:03:49 10° WSW 19:05:19 12° W 19:06:48 10° WNW visible
27 Jan 7.2 06:27:44 10° NNE 06:31:07 51° E 06:34:26 10° S visible
28 Jan 8.9 06:01:40 10° NE 06:04:26 22° E 06:07:09 10° SSE visible
28 Jan 7.9 07:35:09 10° NNW 07:37:36 18° WNW 07:40:01 10° WSW visible
29 Jan 10.0 05:37:17 10° E 05:37:38 10° E 05:37:59 10° E visible
29 Jan 6.8 07:07:56 10° N 07:11:10 39° WNW 07:14:22 10° SW visible
30 Jan 6.4 06:41:11 10° NNE 06:44:37 83° ESE 06:48:01 10° S visible
